sat.trackr.live / text

‹ back to catalog

STARLINK-31093

NORAD 58717 · 2024-002N

PAYLOAD ACTIVE UNKNOWN

§ Identity

Operator
Country
US
Launch date
2024-01-03
Launch site
AFWTR
Launch vehicle
Mass (kg)
RCS (m²)

Purposes: comms

External: N2YO · Heavens-Above · Gunter

§ Orbital elements

Epoch: 2026-09-19T23:23:47.026176Z

Period
93.85 min
Inclination
53.1609°
Eccentricity
0.0000841
Mean motion
15.34385329 rev/d
Perigee alt
462.2 km
Apogee alt
463.3 km
Semi-major
6,840.9 km
B*
8.4090e-5
RAAN
45.9300°
Arg perigee
106.5442°
Mean anomaly
253.5654°
Rev number
15,178

§ Raw data

STARLINK-310931 58717U 24002N   26262.97484984  .00002465  00000+0  84090-4 0  99982 58717  53.1609  45.9300 0000841 106.5442 253.5654 15.34385329151785

JSON: /api/v1/satellites/58717 · /tle

For live sub-satellite position, see the globe view (requires WebGL).

§ Visibility from observer

Set your observer location to see the next 7 days of passes ≥ 10°. The values pass through the URL so the page stays shareable.

No JS? Fill the form by hand. The geolocation button needs JavaScript.